Startseite
Über Mich
AHP4
Galerie
Sehschlangen
Tourenbuch
Bookmarks
Elektronik
Bewertung
Geschichten
[Tagesmessung] [Jahreswerte] [Information]

Messwerte vom 01.06.2022

Die letzten Messwerte von 23:58:46 Uhr:
KategorieMesswert
Temperatur [°C]9
Luftdruck [mBar]1002
Sonneneinstrahlung0
Wind [km/h]0 aus Ost
Niederschlag [l/m²]0
rel.Luftfeucht.96.6%
CO2 [ppm]715

Diagramme
Messwerte vom 01.06.2022
Tagesaggregation
KategorieMinimumMaximumSchnittSumme
Temperatur [°C]52312.1479
Luftdruck [mBar]9951002997.9000
Sonneneinstrahlung247135.1917
Wind [km/h]19
rF [%]4096.687.67
Niederschlag [l/m²]0
CO2 [ppm]404842595.8
Einordnung alsVegetationstag

Messungen an benachbarten Tagen: Zur Jahresaggregation 2022
Tabelle aller Messwerte
UhrzeitTemperatur [°C]Luftdruck [mBar]SonneWind [km/h]RichtungRegen [l/m²]rF [%]CO2 [ppm]
00:01:48 8 998 0 0 O 0 96.6 693
00:04:45 8 997 0 0 O 0 96.6 691
00:07:46 8 998 0 0 O 0 96.6 696
00:10:47 8 998 0 0 O 0 96.6 682
00:13:48 7 997 0 0 O 0 96.6 658
00:16:46 7 998 0 0 O 0 96.6 633
00:19:45 7 998 0 0 O 0 96.6 630
00:22:46 7 998 0 0 O 0 96.6 635
00:25:47 7 997 0 0 O 0 96.6 638
00:28:43 7 997 0 0 O 0 96.6 656
00:31:45 7 998 0 0 O 0 96.6 656
00:34:49 7 998 0 0 O 0 96.6 659
00:37:45 7 998 0 0 O 0 96.6 653
00:40:46 7 997 0 0 O 0 96.6 653
00:43:45 7 997 0 0 O 0 96.6 645
00:46:47 7 997 0 0 O 0 96.6 644
00:49:47 7 998 0 0 NW 0 96.6 650
00:52:48 8 997 0 0 NW 0 96.6 665
00:55:48 8 997 0 0 NW 0 96.6 661
00:58:49 8 997 0 0 NW 0 96.6 657
01:01:46 8 997 0 0 NW 0 96.6 656
01:04:48 8 997 0 0 NW 0 96.6 662
01:07:47 8 997 0 0 NW 0 96.6 667
01:10:47 8 998 0 0 NW 0 96.6 677
01:13:46 8 998 0 0 S 0 96.6 677
01:16:46 8 997 0 0 O 0 96.6 690
01:19:44 8 998 0 0 O 0 96.6 691
01:22:46 8 997 0 0 O 0 96.6 692
01:25:47 8 997 0 0 O 0 96.6 692
01:28:47 8 997 0 2 SO 0 96.6 698
01:31:45 8 997 0 0 O 0 96.6 704
01:34:50 7 998 0 0 O 0 96.6 715
01:37:46 7 997 0 0 O 0 96.6 721
01:40:46 7 998 0 0 O 0 96.6 722
01:43:46 7 998 0 0 O 0 96.6 718
01:46:46 7 997 0 0 O 0 96.6 712
01:49:44 7 998 0 0 O 0 96.6 712
01:52:46 7 997 0 0 O 0 96.6 713
01:55:47 7 997 0 0 O 0 96.6 728
01:58:46 7 997 0 0 O 0 96.6 735
02:01:48 7 997 0 0 O 0 96.6 735
02:04:45 7 997 0 0 O 0 96.6 735
02:07:47 7 997 0 0 O 0 96.6 733
02:10:44 7 997 0 0 O 0 96.6 744
02:13:46 6 997 0 0 O 0 96.6 741
02:16:45 6 997 0 0 O 0 96.6 750
02:19:47 7 997 0 0 O 0 96.6 754
02:22:45 6 998 0 0 O 0 96.6 755
02:25:46 6 997 0 0 O 0 96.6 751
02:28:48 6 997 0 0 SO 0 96.6 750
02:31:48 6 997 0 0 SO 0 96.6 754
02:34:47 6 996 0 0 NO 0 96.6 754
02:37:49 6 997 0 0 NO 0 96.6 744
02:40:46 6 997 0 0 NO 0 96.6 750
02:43:48 6 997 0 0 NO 0 96.6 756
02:46:47 6 997 0 0 NO 0 96.6 766
02:49:47 6 998 0 0 SO 0 96.6 767
02:52:47 6 997 0 0 SO 0 96.6 765
02:55:48 6 997 0 0 SO 0 96.6 762
02:58:46 6 997 0 0 SO 0 96.6 770
03:01:47 6 997 0 0 SO 0 96.6 772
03:04:48 6 997 0 0 SO 0 96.6 782
03:07:48 6 997 0 0 SO 0 96.6 782
03:10:47 6 997 0 0 SO 0 96.6 789
03:13:47 6 997 0 0 SO 0 96.6 791
03:16:48 6 998 0 0 SO 0 96.6 790
03:19:47 6 997 0 0 SO 0 96.6 796
03:22:47 6 998 0 0 SO 0 96.6 795
03:25:46 6 998 0 0 SO 0 96.6 799
03:28:48 6 997 0 0 NO 0 96.6 803
03:31:50 6 997 0 0 NO 0 96.6 803
03:34:45 6 997 0 0 NO 0 96.6 799
03:37:47 6 998 0 0 NO 0 96.6 801
03:40:45 6 997 0 0 N 0 96.6 801
03:43:47 6 998 0 0 N 0 96.6 803
03:46:45 6 997 0 0 N 0 96.6 797
03:49:46 6 997 0 0 NO 0 96.6 794
03:52:47 6 996 0 0 NO 0 96.6 794
03:55:49 5 996 0 0 NO 0 96.6 802
03:58:48 5 997 0 0 SO 0 96.6 798
04:01:47 5 996 0 0 N 0 96.6 802
04:04:49 5 997 0 0 N 0 96.6 807
04:07:46 5 997 0 0 O 0 96.6 812
04:10:49 5 996 0 0 NO 0 96.6 817
04:13:47 5 996 0 0 NO 0 96.6 811
04:16:48 5 996 0 0 NO 0 96.6 803
04:19:47 5 995 0 0 NO 0 96.6 797
04:22:48 5 996 0 2 NO 0 96.6 797
04:25:46 5 996 0 0 NO 0 96.6 799
04:28:50 5 996 3 0 NO 0 96.6 802
04:31:46 5 996 4 0 NO 0 96.6 802
04:34:48 5 996 5 0 NO 0 96.6 803
04:37:47 5 996 7 0 NO 0 96.6 796
04:40:46 5 996 9 0 NO 0 96.6 795
04:43:52 5 996 12 0 NO 0 96.6 801
04:46:45 5 997 14 0 NO 0 96.6 805
04:49:47 5 996 15 0 NO 0 96.6 806
04:52:46 6 996 17 0 NO 0 96.6 800
04:55:46 6 996 21 0 NO 0 96.6 803
04:58:46 6 997 27 0 NO 0 96.6 802
05:01:48 6 996 35 0 NO 0 96.6 809
05:04:47 6 996 45 0 NO 0 96.6 806
05:07:50 6 996 59 0 NO 0 96.6 812
05:10:47 6 997 74 0 NO 0 96.6 805
05:13:47 6 996 84 0 NO 0 96.6 806
05:16:47 6 996 92 0 NO 0 96.6 807
05:19:47 6 996 101 0 NO 0 96.6 814
05:22:49 6 996 111 0 NO 0 96.6 818
05:25:50 6 996 119 0 NO 0 96.6 823
05:28:48 6 997 128 0 NO 0 96.6 826
05:31:49 6 997 134 0 NW 0 96.6 826
05:34:46 6 997 140 0 O 0 96.6 827
05:37:48 7 996 145 0 NO 0 96.6 823
05:40:46 7 996 149 0 NO 0 96.6 822
05:43:48 7 996 153 1 NO 0 96.6 827
05:46:47 7 996 157 0 NO 0 96.6 822
05:49:48 7 996 160 0 NO 0 96.6 824
05:52:46 7 997 157 0 NO 0 96.6 823
05:55:50 7 997 151 0 NO 0 96.6 822
05:58:50 7 996 147 0 NO 0 96.6 822
06:01:49 7 996 143 0 NO 0 96.6 822
06:04:48 7 996 141 0 SO 0 96.6 820
06:07:47 7 997 135 0 SO 0 96.6 828
06:10:47 7 996 131 0 NO 0 96.6 832
06:13:49 8 996 129 0 NO 0 96.6 835
06:16:47 8 997 131 0 NO 0 96.6 838
06:19:47 8 997 133 0 NO 0 96.6 842
06:22:50 8 997 130 0 NO 0 96.6 835
06:25:49 8 997 137 0 NO 0 96.6 839
06:28:48 8 997 151 0 S 0 96.6 837
06:31:47 8 997 165 0 SO 0 96.6 838
06:34:48 8 996 170 0 SO 0 96.6 835
06:37:48 8 997 169 0 SO 0 96.6 834
06:40:49 8 998 166 0 NO 0 96.6 834
06:43:48 8 998 168 0 S 0 96.6 835
06:46:46 8 998 176 0 O 0 96.6 837
06:49:48 8 997 184 0 O 0 96.6 834
06:52:48 8 997 189 0 O 0 96.6 837
06:55:45 8 997 193 0 O 0 96.6 835
06:58:47 8 997 196 0 O 0 96.6 829
07:01:47 9 997 198 0 O 0 96.6 814
07:04:47 9 998 197 0 O 0 96.6 785
07:07:48 9 996 194 0 NW 0 96.6 769
07:10:48 9 997 189 0 NW 0 96.6 759
07:13:48 9 997 186 0 NW 0 96.6 745
07:16:48 9 997 186 0 NW 0 96.6 750
07:19:49 10 996 189 0 NW 0 96.6 751
07:22:49 10 997 191 0 NW 0 96.6 754
07:25:49 10 997 188 0 NW 0 96.6 732
07:28:48 10 998 178 0 NW 0 96.6 715
07:31:50 10 997 177 0 NW 0 96.6 715
07:34:50 10 997 179 0 NW 0 96.6 715
07:37:49 10 996 184 0 NW 0 96.6 707
07:40:48 11 997 184 0 NW 0 96.6 704
07:43:49 12 997 186 0 NW 0 96.6 703
07:46:50 14 998 186 0 SW 0 96.6 705
07:49:49 15 998 186 0 SO 0 96.6 700
07:52:45 16 996 187 0 S 0 95.5 703
07:55:48 16 996 187 2 W 0 89.3 697
07:58:48 16 997 187 2 S 0 88.2 700
08:01:50 16 997 187 0 S 0 88.2 697
08:04:47 15 997 188 0 SW 0 89.6 691
08:07:49 14 997 188 0 S 0 94.7 680
08:10:48 13 997 188 1 W 0 95.8 676
08:13:51 13 998 189 0 O 0 96.6 669
08:16:48 13 996 189 1 W 0 96.6 663
08:19:50 13 997 190 0 NO 0 96.6 648
08:22:49 13 998 190 0 S 0 96.6 650
08:25:48 13 996 191 0 SO 0 96.6 648
08:28:47 12 998 194 8 W 0 96.6 644
08:31:49 12 997 200 0 W 0 96.6 639
08:34:51 12 998 208 0 NW 0 96.6 632
08:37:49 13 997 214 0 O 0 96.6 639
08:40:49 13 998 217 1 W 0 96.6 627
08:43:47 13 998 216 4 W 0 96.6 625
08:46:48 14 998 215 0 SW 0 96.6 617
08:49:48 14 997 213 1 S 0 96.6 612
08:52:48 14 998 214 0 SW 0 96.6 612
08:55:48 14 998 214 2 SO 0 96.6 609
08:58:49 14 998 216 2 SO 0 96.6 601
09:01:46 13 998 215 1 S 0 96.5 595
09:04:49 14 998 215 0 S 0 96.2 589
09:07:48 14 997 215 0 SO 0 96.5 587
09:10:48 14 998 215 0 O 0 96.5 594
09:13:48 14 998 214 0 0 96.6 586
09:16:48 14 998 213 1 S 0 96 583
09:19:50 14 998 214 1 SW 0 95.2 574
09:22:46 14 997 216 0 S 0 95.1 578
09:25:47 15 998 213 2 SW 0 94.4 580
09:28:49 14 998 210 0 NW 0 93.5 575
09:31:48 14 998 211 0 SO 0 91.9 567
09:34:49 14 998 211 0 SO 0 93.1 565
09:37:48 14 998 209 1 S 0 92.5 568
09:40:49 14 998 211 0 SW 0 92.2 556
09:43:47 14 998 214 0 W 0 93 557
09:46:49 14 998 215 4 SW 0 93.8 550
09:49:49 14 998 214 1 S 0 92.7 549
09:52:47 14 998 208 0 S 0 93.7 548
09:55:49 15 998 204 0 SW 0 93.6 545
09:58:49 15 998 199 0 SW 0 92.7 540
10:01:50 14 998 205 1 SW 0 91.2 540
10:04:46 14 998 211 0 W 0 90.6 545
10:07:51 14 998 221 0 S 0 90.8 549
10:10:47 14 997 220 0 S 0 91.1 547
10:13:48 15 998 214 0 SW 0 90.4 545
10:16:47 15 998 212 1 S 0 89.5 539
10:19:50 15 998 216 5 SW 0 89.4 534
10:22:49 15 998 219 1 NW 0 88.4 533
10:25:47 15 998 215 2 S 0 87.7 530
10:28:50 15 998 206 6 S 0 88.4 528
10:31:46 15 998 211 0 S 0 87.6 519
10:34:49 14 998 218 4 SO 0 89.2 521
10:37:47 15 998 212 0 S 0 89.4 527
10:40:51 15 997 207 0 SW 0 89 524
10:43:46 15 997 213 1 S 0 88.2 527
10:46:50 15 998 208 1 SW 0 87.1 520
10:49:49 15 998 201 2 NW 0 86.3 519
10:52:50 15 998 210 1 S 0 86.6 515
10:55:47 15 998 214 1 SW 0 86.1 512
10:58:48 15 998 219 1 S 0 84.4 510
11:01:50 15 998 219 6 SW 0 82 512
11:04:47 15 998 221 1 S 0 82.4 515
11:07:48 16 998 225 0 SO 0 82.2 524
11:10:47 16 998 220 1 S 0 80.9 522
11:13:48 16 998 217 1 S 0 78.3 518
11:16:47 16 998 217 2 W 0 78.4 506
11:19:47 16 998 215 4 S 0 76.8 504
11:22:47 16 998 216 3 S 0 76 502
11:25:50 16 998 217 0 SW 0 80.1 508
11:28:50 16 998 212 5 SW 0 80.2 507
11:31:46 16 997 217 0 S 0 79.4 504
11:34:47 16 998 224 0 SO 0 79.5 498
11:37:49 16 998 226 2 S 0 79.4 498
11:40:50 17 998 223 2 SW 0 76.7 496
11:43:48 17 997 222 0 S 0 75.9 504
11:46:46 17 998 217 1 NO 0 75.1 506
11:49:49 17 998 213 11 O 0 74.7 507
11:52:48 17 998 208 0 N 0 73.7 501
11:55:46 16 998 215 1 S 0 73.5 497
11:58:50 16 998 217 2 SW 0 76.1 489
12:01:48 15 998 216 2 S 0 76.3 489
12:04:49 15 998 212 2 SW 0 75.3 483
12:07:49 15 998 218 0 SW 0 75.7 495
12:10:49 16 998 221 11 W 0 76.6 489
12:13:47 17 998 224 1 S 0 76.7 486
12:16:52 18 998 227 0 NW 0 74.5 492
12:19:49 19 998 230 1 O 0 69.4 498
12:22:48 20 998 231 6 S 0 68.2 510
12:25:48 20 997 230 8 SW 0 59.4 504
12:28:51 21 998 232 6 S 0 59 504
12:31:50 21 997 228 1 NO 0 54.5 496
12:34:49 20 998 226 5 SO 0 54.2 496
12:37:49 19 998 223 3 S 0 53.3 495
12:40:48 19 998 215 2 S 0 58 495
12:43:47 18 998 218 2 W 0 62.4 491
12:46:48 17 998 217 10 SO 0 67.6 489
12:49:50 16 998 222 5 SO 0 69.8 478
12:52:49 15 998 227 6 W 0 74.5 466
12:55:48 15 998 228 2 O 0 76.8 468
12:58:48 15 998 229 2 S 0 77.6 466
13:01:48 15 998 229 0 SO 0 79.4 474
13:04:49 16 998 227 2 W 0 80.8 474
13:07:32 14 998 224 0 NO 0 67.5 478
13:10:49 18 998 221 1 NW 0 77 483
13:13:51 19 999 217 0 W 0 74.7 486
13:16:49 20 998 216 3 NW 0 71.3 481
13:19:50 20 998 217 6 W 0 65.9 478
13:22:46 21 998 218 0 S 0 65.7 481
13:25:47 21 998 218 0 S 0 64.2 483
13:28:48 21 998 218 1 NO 0 63.1 480
13:31:48 21 998 219 1 NW 0 62.6 481
13:34:48 21 998 218 2 NW 0 56 475
13:37:47 21 998 216 4 W 0 56.1 477
13:40:50 21 998 220 0 O 0 57.8 472
13:43:46 21 998 222 1 S 0 59 478
13:46:48 22 998 223 0 W 0 58.5 475
13:49:47 22 998 225 5 S 0 57.6 475
13:52:48 22 998 227 4 SW 0 57 474
13:55:48 23 998 229 2 S 0 57.2 474
13:58:49 23 998 230 0 NW 0 56.7 467
14:01:47 23 998 232 2 W 0 55.2 471
14:04:48 23 998 233 15 S 0 53 471
14:07:49 23 998 232 3 W 0 53.4 472
14:10:46 23 998 236 3 S 0 46.1 472
14:13:46 23 998 236 3 N 0 45.2 474
14:16:50 23 998 231 2 W 0 49 472
14:19:49 22 998 240 7 S 0 49 472
14:22:48 23 998 240 6 O 0 49.3 475
14:25:47 23 998 241 3 N 0 45.3 466
14:28:50 23 998 238 2 SO 0 43.7 468
14:31:51 22 998 222 7 SW 0 43.1 464
14:34:46 21 997 224 1 SO 0 44.7 468
14:37:50 20 998 241 4 SO 0 46.9 467
14:40:48 20 998 240 5 0 48.8 464
14:43:49 20 997 242 3 S 0 50 466
14:46:48 21 998 243 1 NW 0 50.3 463
14:49:49 22 998 243 7 SO 0 45.9 466
14:52:49 22 998 232 7 SW 0 45.7 463
14:55:50 22 998 244 2 S 0 46 465
14:58:47 22 997 237 2 S 0 46.3 463
15:01:51 22 998 243 2 SO 0 44.9 457
15:04:48 22 998 227 2 S 0 48.1 454
15:07:49 22 998 226 0 NW 0 48.5 448
15:10:33 21 998 233 2 NW 0 40 449
15:13:47 21 998 245 0 W 0 52.8 454
15:16:50 22 997 227 1 NW 0 53.2 454
15:19:47 21 997 217 9 SW 0 52.2 457
15:22:50 21 998 214 1 SW 0 52.7 466
15:25:49 20 998 214 1 SO 0 53.2 471
15:28:47 20 998 210 1 S 0 53.5 465
15:31:50 19 998 182 6 SO 0 52.1 458
15:34:45 19 998 150 1 S 0 51.3 454
15:37:50 18 998 140 6 S 0 52.2 454
15:40:46 17 998 138 7 S 0 60.5 445
15:43:46 15 998 136 19 S 0 67.5 451
15:46:48 17 999 135 5 W 0 74.5 457
15:49:49 16 999 165 2 O 0 83.7 457
15:52:47 16 998 180 2 W 0 87.4 455
15:55:47 15 998 201 1 S 0 87.9 448
15:58:46 15 998 218 1 S 0 88.5 448
16:01:49 15 998 220 0 NW 0 89.8 451
16:04:50 14 998 231 0 SO 0 90.5 457
16:07:47 12 998 243 0 SO 0 91.4 460
16:10:49 13 998 246 0 N 0 93 453
16:13:50 14 998 246 0 SO 0 94.2 451
16:16:50 16 998 245 0 NW 0 92 460
16:19:48 17 998 246 7 SW 0 86.3 459
16:22:49 17 998 246 1 S 0 86.2 419
16:25:46 18 998 246 0 O 0 84.9 415
16:28:50 19 999 247 0 NO 0 81.8 416
16:31:48 19 998 247 2 W 0 79.8 421
16:34:32 17 998 247 0 NW 0 72.8 421
16:37:49 19 998 247 1 SO 0 76 419
16:40:47 20 998 246 3 SO 0 75.8 413
16:43:51 20 998 243 1 NO 0 76.1 413
16:46:47 20 998 233 3 SW 0 74.5 416
16:49:47 18 998 229 1 NO 0 74.4 413
16:52:50 18 998 228 0 SO 0 76.3 407
16:55:48 17 998 221 0 SO 0 78.6 407
16:58:47 17 998 214 1 S 0 81.2 404
17:01:47 17 998 208 0 S 0 81.7 408
17:04:48 16 999 203 2 SW 0 82.7 408
17:07:48 16 998 197 0 SO 0 82.7 415
17:10:48 16 998 141 0 SO 0 82.9 416
17:13:47 15 998 111 0 SW 0 83.5 416
17:16:48 15 998 166 1 S 0 84.5 405
17:19:47 15 998 191 3 S 0 86 406
17:22:46 14 998 212 3 O 0 86 410
17:25:47 14 998 213 1 SO 0 85.9 417
17:28:49 13 998 216 2 SW 0 88.8 415
17:31:48 13 999 213 1 S 0 90.5 410
17:34:47 13 998 223 3 SW 0 91.4 418
17:37:50 13 998 238 2 SW 0 92 424
17:40:47 14 998 233 1 W 0 93 431
17:43:51 14 998 235 5 NW 0 93 430
17:46:49 14 998 229 9 NO 0 92.4 437
17:49:48 14 998 223 2 NW 0 91.6 439
17:52:48 14 998 226 2 W 0 90.3 447
17:55:45 14 999 233 1 S 0 89.9 445
17:58:47 14 998 225 2 W 0 90.6 454
18:01:48 14 998 224 0 SO 0 90.5 456
18:04:50 14 998 224 1 SW 0 90.1 460
18:07:48 14 998 226 1 SW 0 89.5 463
18:10:50 13 998 225 3 NW 0 88.7 463
18:13:49 13 998 221 2 S 0 88.3 468
18:16:49 13 998 216 0 SW 0 88.6 477
18:19:49 14 998 213 0 S 0 88.7 478
18:22:47 14 999 209 0 S 0 88.9 483
18:25:48 14 998 209 1 SO 0 89 495
18:28:51 14 998 208 2 SO 0 88.9 512
18:31:47 14 998 206 3 W 0 88.5 518
18:34:48 13 998 203 2 SO 0 88.1 518
18:37:48 13 999 204 0 SO 0 88.6 524
18:40:48 13 999 203 1 SW 0 88.9 527
18:43:46 13 998 200 0 S 0 89.4 533
18:46:50 13 998 198 0 SO 0 90.1 536
18:49:48 13 998 194 1 O 0 90.2 536
18:52:50 13 998 188 0 NO 0 90.4 521
18:55:49 13 998 184 0 SO 0 90.3 500
18:58:49 13 999 188 0 SO 0 90.2 495
19:01:48 13 998 201 1 SW 0 90.7 494
19:04:46 13 998 209 0 O 0 91.2 492
19:07:48 13 998 211 4 NO 0 91.1 485
19:10:49 13 998 207 0 SO 0 92.5 492
19:13:50 13 998 204 0 SO 0 93 492
19:16:48 12 998 203 1 NW 0 93.1 489
19:19:48 12 999 202 0 S 0 92.8 484
19:22:48 12 999 201 0 W 0 93.1 484
19:25:49 12 998 206 0 NW 0 93.7 486
19:28:48 12 998 210 0 O 0 93.8 492
19:31:48 12 999 213 1 SO 0 93.9 495
19:34:47 13 999 209 0 O 0 93.8 496
19:37:47 13 998 204 1 S 0 93.3 483
19:40:50 13 999 203 2 SO 0 92.3 486
19:43:49 13 998 200 0 SO 0 91.7 483
19:46:48 13 999 192 1 SW 0 91.5 483
19:49:49 13 999 187 0 S 0 91.4 472
19:52:47 12 998 181 0 SO 0 91.2 466
19:55:48 12 999 179 1 SW 0 91.2 470
19:58:47 12 999 180 1 S 0 91.5 468
20:01:49 12 999 174 2 SW 0 91.9 466
20:04:48 12 998 169 0 N 0 91.9 466
20:07:48 12 998 165 0 O 0 92.2 468
20:10:47 12 998 167 0 O 0 92.3 471
20:13:51 12 999 168 0 SO 0 92.8 478
20:16:48 12 999 164 0 SW 0 92.8 492
20:19:48 12 998 161 0 S 0 92.9 498
20:22:47 11 998 162 0 SO 0 93 501
20:25:47 11 998 162 0 O 0 93 504
20:28:48 11 998 157 0 O 0 93.3 503
20:31:46 11 999 151 0 O 0 93.5 507
20:34:47 11 999 147 0 SO 0 93.8 503
20:37:48 11 999 142 0 S 0 94.2 501
20:40:47 11 999 133 0 SO 0 94.4 501
20:43:48 11 999 131 0 SO 0 94.5 506
20:46:48 11 999 135 0 O 0 94.6 507
20:49:50 11 999 138 0 SO 0 94.8 509
20:52:51 11 999 140 0 SO 0 94.9 516
20:55:47 11 999 138 0 S 0 95 510
20:58:46 11 998 131 0 S 0 95.2 516
21:01:47 11 998 116 0 S 0 95.1 521
21:04:46 11 999 115 0 S 0 95.1 527
21:07:47 10 999 111 0 S 0 95.2 533
21:10:48 10 999 99 0 S 0 95.6 527
21:13:48 10 999 89 0 S 0 95.6 522
21:16:48 10 999 72 0 S 0 95.7 524
21:19:48 10 999 50 0 W 0 96.1 528
21:22:48 10 999 44 0 NW 0 96.6 525
21:25:49 10 999 46 0 NW 0 96.6 527
21:28:46 10 999 45 0 SW 0 96.5 527
21:31:48 10 999 44 0 SW 0 96.5 534
21:34:49 10 1000 38 0 SW 0 96.4 542
21:37:48 10 999 37 0 SW 0 96.6 548
21:40:49 10 1000 34 0 NW 0 96.6 548
21:43:49 10 1000 27 0 NW 0 96.6 551
21:46:49 10 999 20 0 SO 0 96.5 556
21:49:47 10 1000 15 0 SO 0 96 554
21:52:46 10 1000 11 0 SO 0 96 556
21:55:47 10 1000 8 0 SO 0 96 550
21:58:48 10 1000 6 0 SO 0 96 545
22:01:52 10 1000 5 0 SO 0 96.1 547
22:04:47 10 1000 4 0 SO 0 96.2 550
22:07:47 9 1000 3 0 SO 0 96.5 554
22:10:46 9 999 3 0 SO 0 96.6 550
22:13:49 9 1000 3 0 SO 0 96.6 551
22:16:48 9 1000 3 0 SO 0 96.6 551
22:19:48 9 1000 0 0 SO 0 96.6 551
22:22:48 9 1001 0 0 SO 0 96.6 544
22:25:48 9 1000 0 0 SO 0 96.6 551
22:28:45 9 999 0 0 0 96.6 560
22:31:49 9 1000 0 0 SO 0 96.6 562
22:34:48 9 1000 0 0 SO 0 96.6 551
22:37:48 9 1000 0 0 S 0 96.6 548
22:40:47 9 1000 0 0 S 0 96.6 551
22:43:49 9 1000 0 0 SO 0 96.6 562
22:46:47 9 1000 0 0 S 0 96.6 565
22:49:49 9 1000 0 0 SO 0 96.6 566
22:52:52 9 1000 0 0 SO 0 96.6 563
22:55:47 9 1000 0 0 S 0 96.6 562
22:58:49 9 1000 0 0 SW 0 96.6 556
23:01:47 9 1001 0 0 S 0 96.6 556
23:04:45 9 1000 0 0 S 0 96.6 574
23:07:46 9 1001 0 0 SO 0 96.6 577
23:10:47 9 1000 0 0 SO 0 96.6 580
23:13:49 9 1001 0 0 SO 0 96.6 589
23:16:47 9 1001 0 0 S 0 96.6 601
23:19:47 9 1000 0 0 NW 0 96.6 621
23:22:48 9 1000 0 1 SW 0 96.6 633
23:25:46 9 1001 0 0 S 0 96.6 645
23:28:46 9 1000 0 0 O 0 96.6 659
23:31:49 9 1001 0 0 O 0 96.6 673
23:34:46 9 1000 0 0 O 0 96.6 677
23:37:45 9 1001 0 0 O 0 96.6 679
23:40:46 9 1001 0 0 O 0 96.6 684
23:43:47 9 1001 0 0 O 0 96.6 694
23:46:46 9 1000 0 0 O 0 96.6 703
23:49:48 9 1001 0 0 O 0 96.6 709
23:52:46 9 1001 0 0 O 0 96.6 703
23:55:46 9 1001 0 0 O 0 96.6 708
23:58:46 9 1002 0 0 O 0 96.6 715

Letzte Änderung : 22-Jul-2022
Copyright Jens Köhler, Wolfsburg, Obere Dorfstraße 10d